Huntington, WV

5:41 PM EST on February 19, 2018 (GMT -0500)
Tri-State / Ferguson

Weather History for KHTS - March, 2013

Change the Weather History Date:

Monday, March 25, 2013

  Actual Average Record
Temperature  
Mean Temperature 37 °F 49 °F  
Max Temperature 41 °F 60 °F 92 °F (1929)
Min Temperature 32 °F 38 °F 15 °F (1960)
Degree Days  
Heating Degree Days 28 16  
Month to date heating degree days 630 507  
Since 1 July heating degree days 4045 4008  
Cooling Degree Days 0 0  
Month to date cooling degree days 0 0  
Year to date cooling degree days 0 0  
Moisture  
Dew Point 30 °F    
Average Humidity 84    
Maximum Humidity 92    
Minimum Humidity 75    
Precipitation  
Precipitation 0.10 in 0.13 in 0.93 in (1935)
Month to date precipitation 3.67 3.16  
Year to date precipitation 9.35 9.20  
Snow  
Snow T in - - ()
Month to date snowfall T  
Since 1 September snowfall 11.9  
Snow Depth T in    
Sea Level Pressure  
Sea Level Pressure 29.62 in    
Wind  
Wind Speed 11 mph (WSW)    
Max Wind Speed 22 mph    
Max Gust Speed 29 mph    
Visibility 4 miles    
Events Rain , Snow    
T = Trace of Precipitation, MM = Missing Value Source: NWS Daily Summary

Daily Weather History Graph

Daily Weather History Graph

Search for Another Location

Airport or City:

Trip Planner

Search our weather history database for the weather conditions in past years. The results will help you decide how hot, cold, wet, or windy it might be!

Date:

Astronomy

Mar. 25, 2013 Rise Set
Actual Time 7:25 AM EDT 7:47 PM EDT
Civil Twilight 6:59 AM EDT 8:13 PM EDT
Nautical Twilight 6:28 AM EDT 8:44 PM EDT
Astronomical Twilight 5:56 AM EDT 9:16 PM EDT
Moon 6:18 PM EDT (3/25) 6:07 AM EDT (3/25)
Length of Visible Light 13h 14m
Length of Day
12h 21m
Waxing Gibbous, 96% of the Moon is Illuminated
Mar 25
Waxing Gibbous
Mar 27
Full
Apr 3
Last Quarter
Apr 10
New
Apr 18
First Quarter

Hourly Weather History & Observations

Time (EDT) Temp. Windchill Dew Point Humidity Pressure Visibility Wind Dir Wind Speed Gust Speed Precip Events Conditions
12:51 AM 39.0 °F 33.4 °F 37.0 °F 93% 29.44 in 10.0 mi SW 8.1 mph - 0.00 in Rain Light Rain
1:14 AM 39.2 °F 33.6 °F 37.4 °F 93% 29.43 in 10.0 mi SW 8.1 mph - 0.00 in Rain Light Rain
1:51 AM 39.9 °F 35.1 °F 37.0 °F 89% 29.44 in 10.0 mi WSW 6.9 mph - 0.00 in   Overcast
2:51 AM 41.0 °F 35.2 °F 36.0 °F 82% 29.45 in 10.0 mi WSW 9.2 mph - 0.00 in Rain Light Rain
3:51 AM 37.9 °F 28.9 °F 33.1 °F 83% 29.48 in 10.0 mi WSW 16.1 mph 24.2 mph 0.03 in Rain Light Rain
4:21 AM 35.6 °F 27.5 °F 30.2 °F 81% 29.49 in 10.0 mi SW 11.5 mph 26.5 mph 0.00 in   Overcast
4:51 AM 36.0 °F 27.5 °F 28.9 °F 76% 29.50 in 10.0 mi SW 12.7 mph 27.6 mph 0.00 in   Overcast
5:37 AM 35.6 °F 29.9 °F 28.4 °F 75% 29.49 in 10.0 mi SW 6.9 mph 16.1 mph N/A   Overcast
5:51 AM 35.1 °F 27.9 °F 28.9 °F 78% 29.51 in 10.0 mi SSW 9.2 mph 18.4 mph 0.00 in Snow Light Snow
6:51 AM 33.1 °F 24.9 °F 28.9 °F 85% 29.50 in 2.5 mi SSW 10.4 mph - 0.00 in Snow Light Snow
7:06 AM 33.8 °F 27.0 °F 30.2 °F 87% 29.49 in 1.8 mi SSW 8.1 mph - 0.00 in Snow Light Snow
7:26 AM 33.8 °F 27.7 °F 30.2 °F 87% 29.50 in 1.8 mi SSW 6.9 mph - N/A Snow Light Snow
7:43 AM 32.0 °F 24.8 °F 30.2 °F 93% 29.50 in 1.0 mi SSW 8.1 mph - N/A Snow Light Snow
7:51 AM 32.0 °F 24.8 °F 30.0 °F 92% 29.51 in 1.0 mi SSW 8.1 mph - 0.01 in Snow Light Snow
7:57 AM 33.8 °F 26.4 °F 30.2 °F 87% 29.50 in 2.0 mi SSW 9.2 mph - 0.01 in Snow Light Snow
8:51 AM 33.1 °F 26.1 °F 30.0 °F 89% 29.52 in 0.8 mi SSW 8.1 mph - 0.02 in Snow Light Snow
9:51 AM 33.1 °F 24.9 °F 30.0 °F 89% 29.55 in 0.8 mi SW 10.4 mph 20.7 mph 0.01 in Snow Light Snow
9:58 AM 33.8 °F 24.8 °F 30.2 °F 87% 29.53 in 0.8 mi WSW 12.7 mph - 0.01 in Snow Light Snow
10:29 AM 33.8 °F 24.8 °F 28.4 °F 81% 29.55 in 1.0 mi WSW 12.7 mph 20.7 mph 0.02 in Snow Light Snow
10:51 AM 33.1 °F 23.4 °F 30.0 °F 89% 29.57 in 0.8 mi WSW 13.8 mph 19.6 mph 0.02 in Snow Light Snow
11:28 AM 33.8 °F 24.3 °F 30.2 °F 87% 29.57 in 2.0 mi WSW 13.8 mph 19.6 mph 0.01 in Snow Light Snow
11:36 AM 33.8 °F 24.3 °F 30.2 °F 87% 29.57 in 1.0 mi WSW 13.8 mph 19.6 mph 0.01 in Snow Light Snow
11:51 AM 34.0 °F 26.6 °F 28.9 °F 82% 29.59 in 1.0 mi WSW 9.2 mph - 0.01 in Snow Light Snow
11:53 AM 33.8 °F 24.3 °F 28.4 °F 81% 29.58 in 3.0 mi WSW 13.8 mph 23.0 mph 0.00 in Snow Light Snow
12:51 PM 34.0 °F 24.2 °F 26.1 °F 73% 29.62 in 10.0 mi West 15.0 mph 25.3 mph 0.00 in   Overcast
1:51 PM 34.0 °F 24.6 °F 28.0 °F 79% 29.64 in 2.5 mi WSW 13.8 mph 21.9 mph 0.00 in Snow Light Snow
2:01 PM 33.8 °F 26.4 °F 28.4 °F 81% 29.62 in 2.5 mi WSW 9.2 mph 21.9 mph 0.00 in Snow Light Snow
2:09 PM 35.6 °F 28.0 °F 28.4 °F 75% 29.62 in 2.5 mi WSW 10.4 mph 21.9 mph 0.00 in Snow Light Snow
2:20 PM 35.6 °F 26.2 °F 28.4 °F 75% 29.62 in 2.0 mi WSW 15.0 mph 21.9 mph 0.00 in Snow Light Snow
2:37 PM 35.6 °F 28.6 °F 28.4 °F 75% 29.63 in 2.0 mi WSW 9.2 mph 23.0 mph 0.00 in Snow Light Snow
2:51 PM 36.0 °F 27.1 °F 28.0 °F 73% 29.64 in 5.0 mi West 13.8 mph 21.9 mph 0.00 in Snow Light Snow
3:51 PM 35.1 °F 25.9 °F 27.0 °F 72% 29.67 in 5.0 mi WSW 13.8 mph 24.2 mph 0.00 in Snow Light Snow
4:18 PM 35.6 °F 27.1 °F 28.4 °F 75% 29.66 in 4.0 mi West 12.7 mph 23.0 mph 0.00 in Snow Light Snow
4:51 PM 35.1 °F 27.4 °F 27.0 °F 72% 29.69 in 4.0 mi WSW 10.4 mph 21.9 mph 0.00 in Snow Light Snow
5:13 PM 35.6 °F 26.6 °F 28.4 °F 75% 29.69 in 1.8 mi West 13.8 mph 24.2 mph 0.00 in Snow Light Snow
5:23 PM 35.6 °F 28.0 °F 28.4 °F 75% 29.70 in 2.0 mi West 10.4 mph - 0.00 in Snow Light Snow
5:30 PM 35.6 °F 27.1 °F 28.4 °F 75% 29.70 in 3.0 mi West 12.7 mph 20.7 mph 0.00 in Snow Light Snow
5:51 PM 35.1 °F 27.4 °F 28.9 °F 78% 29.73 in 4.0 mi West 10.4 mph 19.6 mph 0.00 in Snow Light Snow
6:51 PM 35.1 °F 26.4 °F 30.0 °F 82% 29.77 in 6.0 mi WSW 12.7 mph 19.6 mph 0.00 in Snow Light Snow
7:51 PM 34.0 °F 25.5 °F 30.0 °F 85% 29.80 in 4.0 mi West 11.5 mph 19.6 mph 0.00 in Snow Light Snow
7:59 PM 33.8 °F 25.8 °F 30.2 °F 87% 29.79 in 4.0 mi WSW 10.4 mph 19.6 mph 0.00 in Snow Light Snow
8:51 PM 34.0 °F 26.6 °F 30.0 °F 85% 29.83 in 5.0 mi West 9.2 mph - 0.00 in Snow Light Snow
8:58 PM 33.8 °F 26.4 °F 30.2 °F 87% 29.82 in 6.0 mi WSW 9.2 mph 16.1 mph 0.00 in Snow Light Snow
9:51 PM 34.0 °F 26.0 °F 30.0 °F 85% 29.86 in 6.0 mi West 10.4 mph 16.1 mph 0.00 in Snow Light Snow
10:51 PM 34.0 °F 28.0 °F 30.0 °F 85% 29.88 in 6.0 mi West 6.9 mph - 0.00 in Snow Light Snow
11:51 PM 34.0 °F 28.0 °F 28.9 °F 82% 29.90 in 7.0 mi West 6.9 mph - 0.00 in Snow Light Snow